Overview Statistics Trail Chart Weather Telemetry Raw packets
 

This is the latest recevied weather packets stored in our database for station/object KC4JIR. If no packets are shown the sender has not sent any weather packets the latest 10 day(s).

<< 60 61 62 63 64 65 66 >>
Time Temp. Humidity Pressure Rain* Wind** Luminosity Snow
1788196034 32.78° C 65% 1017.9 hPa 0 mm - 800 W/m² -
1788195731 32.22° C 69% 1017.8 hPa 0 mm - 799 W/m² -
1788195426 31.67° C 71% 1017.8 hPa 0 mm - 806 W/m² -
1788195123 31.67° C 73% 1017.6 hPa 0 mm - 825 W/m² -
1788194818 31.67° C 72% 1017.9 hPa 0 mm - 810 W/m² -
1788194514 31.11° C 72% 1017.9 hPa 0 mm - 835 W/m² -
1788194209 31.11° C 73% 1017.9 hPa 0 mm - 924 W/m² -
1788193905 31.67° C 73% 1017.9 hPa 0 mm - 868 W/m² -
1788193604 31.11° C 73% 1017.9 hPa 0 mm - 819 W/m² -
1788193302 31.11° C 74% 1017.9 hPa 0 mm - 815 W/m² -
1788192998 30.56° C 75% 1018 hPa 0 mm - 835 W/m² -
1788192695 30° C 78% 1018 hPa 0 mm - 863 W/m² -
1788192393 30.56° C 77% 1018.2 hPa 0 mm - 124 W/m² -
1788192089 30.56° C 79% 1018.3 hPa 0 mm - 910 W/m² -
1788191788 30.56° C 81% 1018.3 hPa 0 mm - 923 W/m² -
1788191484 30° C 79% 1018.2 hPa 0 mm - 916 W/m² -
1788191180 30° C 79% 1018.1 hPa 0 mm - 105 W/m² -
1788190874 30° C 77% 1018.2 hPa 0 mm - 954 W/m² -
1788190574 29.44° C 79% 1018.1 hPa 0 mm - 359 W/m² -
1788190270 28.89° C 82% 1018.2 hPa 0 mm - 498 W/m² -
1788189965 28.89° C 82% 1018 hPa 0 mm - 109 W/m² -
1788189661 29.44° C 80% 1018.1 hPa 0 mm - 204 W/m² -
1788189361 29.44° C 82% 1018.4 hPa 0 mm - 964 W/m² -
1788189055 28.89° C 82% 1018.3 hPa 0 mm - 941 W/m² -
1788188750 29.44° C 81% 1018.2 hPa 0 mm - 347 W/m² -

* Rain latest hour (hover to see other rain measurements)
** Current wind speed in m/s (hover to see current wind gust speed)